[[{"header":{"parameterUnit":"m.s-1","parameterCategory":1,"la1":30.2992,"la2":30.254,"lo1":-89.0895,"lo2":-89.0443,"dy":0.0025,"dx":0.0025,"nx":19,"ny":19,"refTime":"2026-03-10T09:00:00:Z","depth":0,"parameterNumber":2,"parameterNumberName":"U-component_of_WINDS"},"data":[0,0,0,-2.4352,-2.4353,-2.4388,-2.4388,-2.4442,-2.4442,0,0,0,0,0,0,0,0,0,0,0,-2.4346,-2.4346,-2.4352,-2.4353,-2.4388,-2.4388,-2.4441,-2.4442,0,0,0,0,0,0,0,0,0,0,0,-2.4345,-2.4346,-2.4346,-2.4353,-2.4388,-2.4388,-2.4441,-2.4412,0,0,0,0,0,0,0,0,0,0,-2.4377,-2.4374,-2.4346,-2.4346,-2.4353,-2.4388,-2.4388,-2.441,-2.4414,-2.4429,0,-2.4443,0,-2.4443,-2.4446,-2.4446,0,0,0,-2.435,-2.4372,-2.4377,-2.4347,-2.4353,-2.4387,-2.4371,-2.4412,-2.4416,-2.4434,-2.4443,-2.4445,-2.4444,-2.4446,-2.4447,-2.4541,-2.4542,0,0,-2.4348,-2.4354,-2.4375,-2.438,-2.4374,-2.437,-2.4372,-2.4414,-2.4426,-2.4444,-2.4446,-2.4445,-2.4447,-2.4447,-2.454,-2.4541,0,0,0,-2.4344,-2.4353,-2.4357,-2.4378,-2.4383,-2.4371,-2.4374,-2.4424,-2.4425,-2.4447,-2.4446,-2.4447,-2.4448,-2.454,-2.4541,-2.4573,0,0,0,-2.4343,-2.4351,-2.4357,-2.4361,-2.4383,-2.4404,-2.4382,-2.4422,-2.4426,-2.4445,-2.4447,-2.4449,-2.4539,-2.454,-2.4571,-2.4587,0,0,0,-2.4342,-2.4351,-2.4357,-2.4361,-2.4376,-2.4403,-2.4406,-2.4423,-2.4426,-2.4446,-2.4449,-2.4539,-2.454,-2.4569,-2.4584,-2.4613,0,0,0,-2.4343,-2.4387,-2.4358,-2.4406,-2.4376,-2.4423,-2.4406,-2.4441,-2.4462,-2.4448,-2.4539,-2.4541,-2.4568,-2.4582,-2.461,-2.4636,-2.4648,0,0,-2.4401,-2.4394,-2.4422,-2.4397,-2.445,-2.4417,-2.4476,-2.449,-2.4488,-2.4524,-2.4526,-2.4572,-2.4584,-2.4612,-2.4716,-2.4725,0,0,0,-2.4443,-2.4463,-2.4476,-2.4496,-2.4508,-2.4519,-2.4524,-2.4529,-2.4559,-2.4507,-2.4591,-2.4598,-2.4614,-2.4626,-2.4634,-2.4647,-2.4547,-2.4547,-2.4547,-2.4534,-2.4527,-2.4573,-2.4571,-2.4591,-2.4595,-2.4611,-2.462,-2.4608,-2.4628,-2.4638,-2.4701,-2.4716,-2.4722,-2.4736,-2.4653,-2.4653,-2.4653,-2.4653,-2.4618,-2.4645,-2.4628,-2.4666,-2.4659,-2.4692,-2.4699,-2.469,-2.472,-2.4693,-2.4708,-2.4677,-2.4732,-2.4744,-2.4656,-2.4655,-2.4655,-2.4655,-2.4655,-2.4675,-2.4687,-2.4692,-2.4721,-2.4744,-2.4741,-2.477,-2.4764,-2.4759,-2.4773,-2.4782,-2.4781,-2.4779,-2.4778,-2.4778,-2.4778,-2.4779,-2.4779,-2.4779,-2.4731,-2.4737,-2.4761,-2.4778,-2.479,-2.4805,-2.4811,-2.4824,-2.4836,-2.4829,-2.4829,-2.4814,-2.4739,-2.4719,-2.4782,-2.4782,-2.4781,-2.4781,-2.4781,-2.4816,-2.4796,-2.4833,-2.4845,-2.4864,-2.4888,-2.488,-2.4905,-2.4915,-2.493,-2.4913,-2.4859,-2.4851,-2.4845,-2.4828,-2.4915,-2.4915,-2.4915,-2.4915,-2.4863,-2.4858,-2.4895,-2.4915,-2.4934,-2.493,-2.4974,-2.498,-2.4983,-2.4989,-2.4976,-2.4955,-2.4949,-2.4944,-2.4935,-2.492,-2.5028,-2.5028,-2.5028,-2.4914,-2.4911,-2.4948,-2.495,-2.4964,-2.4977,-2.5018,-2.5043,-2.5043,-2.5033,-2.4993,-2.4989,-2.4953,-2.4943,-2.4929,-2.4916,-2.4887,0,0]},{"header":{"parameterUnit":"m.s-1","parameterCategory":1,"la1":30.2992,"la2":30.254,"lo1":-89.0895,"lo2":-89.0443,"dy":0.0025,"dx":0.0025,"nx":19,"ny":19,"refTime":"2026-03-10T09:00:00:Z","depth":0,"parameterNumber":3,"parameterNumberName":"V-component_of_WINDS"},"data":[0,0,0,2.5591,2.5592,2.5631,2.5632,2.5677,2.5677,0,0,0,0,0,0,0,0,0,0,0,2.5575,2.5575,2.5591,2.5592,2.5631,2.5632,2.5677,2.5677,0,0,0,0,0,0,0,0,0,0,0,2.5575,2.5575,2.5575,2.5592,2.5631,2.5632,2.5677,2.5649,0,0,0,0,0,0,0,0,0,0,2.5611,2.5592,2.5575,2.5575,2.5592,2.5631,2.5632,2.5648,2.5651,2.5656,0,2.5659,0,2.5669,2.568,2.568,0,0,0,2.5595,2.5589,2.5604,2.5575,2.5592,2.5631,2.5614,2.5649,2.5653,2.566,2.566,2.5662,2.567,2.568,2.568,2.57,2.57,0,0,2.5593,2.558,2.5602,2.5606,2.5598,2.5613,2.5616,2.5652,2.5651,2.566,2.5663,2.567,2.568,2.5681,2.57,2.57,0,0,0,2.5584,2.5578,2.5592,2.5604,2.5611,2.5614,2.5617,2.5649,2.5655,2.5664,2.5671,2.5681,2.5681,2.57,2.57,2.5684,0,0,0,2.5583,2.5573,2.5591,2.5583,2.5611,2.5631,2.5614,2.5652,2.5657,2.5671,2.5681,2.5681,2.57,2.57,2.5685,2.5679,0,0,0,2.5574,2.5572,2.5576,2.5582,2.5599,2.563,2.5638,2.5654,2.5661,2.568,2.5682,2.57,2.57,2.5685,2.568,2.5681,0,0,0,2.556,2.5561,2.5576,2.558,2.5598,2.562,2.5638,2.5655,2.5669,2.5681,2.57,2.57,2.5685,2.568,2.5681,2.5679,2.5677,0,0,2.5554,2.556,2.5563,2.5578,2.5593,2.5615,2.5628,2.5654,2.5668,2.5689,2.5689,2.5684,2.568,2.5681,2.5669,2.5667,0,0,0,2.5557,2.556,2.5567,2.558,2.5599,2.5616,2.5641,2.5651,2.5669,2.5676,2.5685,2.5683,2.5684,2.5684,2.5682,2.5684,2.5699,2.5699,2.5699,2.553,2.5548,2.5556,2.5579,2.5591,2.5618,2.563,2.5648,2.5662,2.5664,2.567,2.5661,2.566,2.5659,2.5661,2.567,2.567,2.567,2.567,2.5524,2.553,2.555,2.5565,2.5584,2.5597,2.5623,2.5633,2.5649,2.5657,2.5659,2.5667,2.5656,2.5659,2.5669,2.5669,2.567,2.567,2.567,2.5508,2.5515,2.5526,2.5548,2.5562,2.5586,2.56,2.5618,2.5634,2.5636,2.5645,2.5646,2.5649,2.5639,2.5639,2.5639,2.5639,2.5639,2.5639,2.5487,2.5501,2.5511,2.5532,2.5544,2.5561,2.5588,2.56,2.5618,2.5629,2.563,2.5644,2.5652,2.5653,2.5639,2.5639,2.5639,2.5639,2.5639,2.5475,2.5481,2.5495,2.5506,2.5534,2.5548,2.557,2.5593,2.5606,2.5612,2.5627,2.5629,2.5637,2.5638,2.564,2.5623,2.5623,2.5623,2.5623,2.5462,2.5468,2.5487,2.5504,2.5523,2.5545,2.5562,2.5584,2.5607,2.5616,2.5622,2.5625,2.5626,2.5633,2.5634,2.5636,2.5618,2.5618,2.5618,2.5456,2.5464,2.5475,2.5498,2.5521,2.5541,2.5558,2.5578,2.5606,2.5619,2.5624,2.5624,2.563,2.5631,2.5644,2.5646,2.5649,0,0]}]]